Location: El Diablo
(32.4667°N, 116.4500°W)
Time: 00:57:56
(UTC+00:00)

Thor Agena Rocket - Pass Details

Date: 10 September 2024
Orbit: 757 x 804 km, 99.1° (Epoch: 06 October)

Event Time Altitude Azimuth Distance (km) Brightness Sun altitude
Rises 12:32:51 0° 2° (N) 3,253 7.0 -12.0°
Reaches altitude 10° 12:35:18 10° 354° (N) 2,330 6.1 -11.5°
Maximum altitude 12:39:57 36° 289° (WNW) 1,223 4.1 -10.6°
Drops below altitude 10° 12:44:39 10° 224° (SW) 2,346 5.5 -9.6°
Enters shadow 12:46:18 - 218° (SW) 2,964 6.1 -9.3°
